www.pogodaiklimat.ru

Погода и климат >> Архив погоды >> Австралия >> Perth


АРХИВ ПОГОДЫ в Perth

Время (UTC), дата Ветер
(напр.,м/с)
 
Видим.   Явления Облачность Т
(С)
Тd
(С)
f
(%)
Тe
(С)
Тes
(С)
Комфортность P
(гПа)
Po
(гПа)
Тmin
(С)
Tmax
(С)
R
(мм)
R24
(мм)
S
(см)
01 17.10 СВ 4 30 км 1/0
[Ci fib]
+26.6 +7.5 30 +26 +32 жарко 1010.5 1008.1 +12.3
03 17.10 С 9 н/о н/о +30.5 +5.1 20 +29 +29 жарко 1008.4 1006.0
04 17.10 З 4 30 км 1/0
[Ci fib]
+31.8 +5.1 19 +30 +42 жарко 1007.0 1004.6
05 17.10 З 3 н/о н/о +30.8 1004.2
06 17.10 З 6 н/о н/о +26.1 +9.6 35 +27 +27 жарко 1006.3 1003.9
07 17.10 СЗ 6 30 км 1/1 2000 м
[Cu hum]
+25.2 +11.5 42 +27 +31 жарко 1005.9 1003.5
09 17.10 З 5 н/о н/о +22.4 +11.1 49 +25 +25 комфорт 1005.9 1003.5
10 17.10 З 6 30 км 1/1 600 м
[Cu Sc]
+20.5 +10.2 52 +22 +22 комфорт 1006.1 1003.7
11 17.10 СЗ 1 н/о н/о +22.5 1004.5
12 17.10 СЗ 5 н/о н/о +17.7 +13.1 74 +17 +17 по сезону 1007.0 1004.6
13 17.10 СЗ 4 30 км 5/5 600 м
[Cu Sc]
+17.6 +13.7 78 +17 +17 тепло 1006.5 1004.1 +33.1
15 17.10 СЗ 6 н/о н/о +17.7 +12.9 73 +17 +17 тепло 1005.3 1002.9
16 17.10 С 5 25 км слабый ливневой дождь 8/8 600 м
[Cu Sc]
+17.8 +13.8 77 +17 +17 тепло 1004.9 1002.5
17 17.10 З 2 н/о н/о +17.8 1003.2
18 17.10 З 4 н/о н/о +14.3 +13.0 92 +13 +13 тепло 1005.4 1003.0
19 17.10 СЗ 6 12 км слабая морось {ливн. осадки} 9/9 300 м
[Cu Sc]
+14.8 +10.0 73 +13 +13 по сезону 1005.3 1002.9
21 17.10 З 4 н/о н/о +13.3 +12.0 92 +12 +12 по сезону 1005.3 1002.9
23 17.10 З 2 н/о н/о +13.5 1003.9
22 17.10 СЗ 4 20 км осадки на расстоянии {ливн. осадки, морось} 3/3 600 м
[Cu Sc Ac trans]
+14.1 +11.9 87 +13 +13 по сезону 1005.5 1003.1
00 18.10 З 4 н/о н/о +16.0 +7.9 59 +15 +15 по сезону 1006.8 1004.4
01 18.10 З 8 15 км осадки на расстоянии {ливн. осадки} 8/6 1000 м
[Cu med, cong Ac As]
+17.9 +5.6 44 +17 +17 по сезону 1007.2 1004.8 +13.2 3
03 18.10 З 5 н/о н/о +16.6 +8.4 58 +16 +16 прохладно 1007.7 1005.3
04 18.10 З 4 25 км в посл. час ливневой дождь 9/9 1500 м
[Cu Sc]
+15.0 +8.7 66 +14 +16 очень
холодно
1008.3 1005.9
05 18.10 ЮЗ 3 н/о н/о +16.8 1006.3
06 18.10 З 8 н/о н/о +12.8 +9.0 78 +10 +10 очень
холодно
1009.8 1007.4
07 18.10 З 8 25 км в посл. час ливневой дождь 6/4 1000 м
[Cu med, cong Ac As]
+16.7 +5.5 48 +15 +16 прохладно 1009.6 1007.2 1
09 18.10 ЮЗ 5 н/о н/о +12.1 +9.7 85 +10 +10 очень
холодно
1011.5 1009.1
10 18.10 ЮЗ 5 30 км в посл. час ливневой дождь 6/6 1000 м
[Sc]
+13.6 +8.2 70 +12 +12 прохладно 1012.3 1009.9
11 18.10 ЮЗ 1 н/о н/о +13.0 1011.4
12 18.10 З 5 н/о н/о +12.0 +9.4 84 +10 +10 холодно 1014.5 1012.1
13 18.10 Ю 3 20 км в посл. час ливневой дождь 4/4 1000 м
[Cu Sc]
+10.7 +9.7 94 +9 +9 прохладно 1015.3 1012.9 +18.6 5
15 18.10 Ю 3 н/о н/о +10.4 +8.8 90 +8 +8 холодно 1016.1 1013.7
16 18.10 штиль 0 25 км в посл. час ливневой дождь 8/8 1000 м
[Cu Sc]
+9.6 +9.0 96 +9 +9 по сезону 1016.4 1014.0
17 18.10 штиль 0 н/о н/о +10.2 1014.4
18 18.10 СВ 3 н/о н/о +9.7 +9.1 96 +8 +8 прохладно 1016.8 1014.4
19 18.10 В 2 25 км осадки на расстоянии {ливн. осадки} 5/5 1000 м
[Cu Sc]
+9.6 +9.0 96 +8 +8 прохладно 1017.3 1014.9 0.4
21 18.10 В 2 н/о н/о +9.1 +8.3 95 +8 +8 холодно 1018.6 1016.2
23 18.10 В 1 н/о н/о +9.5 1018.3
22 18.10 СВ 3 18 км слабый ливневой дождь 9/9 1000 м
[Cu Sc]
+9.8 +9.2 96 +8 +8 холодно 1019.4 1017.0
00 19.10 С 3 н/о н/о +12.3 +10.2 87 +11 +11 прохладно 1021.0 1018.6
01 19.10 СВ 3 25 км осадки на расстоянии {ливн. осадки} 5/5 1000 м
[Cu Sc]
+14.7 +8.3 65 +14 +18 холодно 1021.8 1019.4 +8.5 8
03 19.10 З 3 н/о н/о +17.0 +6.9 51 +17 +17 по сезону 1021.6 1019.2
04 19.10 ЮЗ 6 30 км 9/9 1000 м
[Cu Sc]
+17.7 +5.8 46 +17 +18 холодно 1021.4 1019.0
05 19.10 З 2 н/о н/о +16.6 1019.1
06 19.10 З 6 н/о н/о +18.4 +5.9 44 +18 +18 холодно 1021.3 1018.9
07 19.10 З 6 30 км 4/4 1000 м
[Cu Sc]
+18.9 +4.7 39 +19 +22 по сезону 1021.0 1018.6
09 19.10 З 5 н/о н/о +16.7 +6.2 50 +16 +16 прохладно 1021.6 1019.2
10 19.10 ЮЗ 5 30 км 8/8 600 м
[Cu Sc]
+16.7 +6.5 51 +16 +16 по сезону 1021.9 1019.5
11 19.10 З 1 н/о н/о +16.7 1020.2
12 19.10 З 2 н/о н/о +12.0 +9.4 84 +11 +11 холодно 1022.9 1020.5
13 19.10 В 3 30 км 9/9 1000 м
[Sc]
+12.6 +9.2 80 +11 +11 по сезону 1022.9 1020.5 +19.1
15 19.10 С 3 н/о н/о +13.1 +9.8 80 +12 +12 по сезону 1022.4 1020.0
16 19.10 С 3 25 км 9/9 1000 м
[Sc]
+12.6 +9.4 81 +11 +11 по сезону 1021.9 1019.5
17 19.10 СВ 1 н/о н/о +13.0 1019.2
18 19.10 С 3 н/о н/о +11.8 +9.0 83 +10 +10 по сезону 1020.8 1018.4
19 19.10 С 3 25 км 1/1 1000 м
[Sc]
+9.7 +8.7 93 +8 +8 прохладно 1020.5 1018.1
21 19.10 С 3 н/о н/о +8.4 +7.5 94 +6 +6 холодно 1020.5 1018.1
23 19.10 СВ 1 н/о н/о +8.5 1018.9
22 19.10 С 3 25 км 6/6 1000 м
[Sc]
+9.2 +8.2 93 +7 +7 очень
холодно
1020.8 1018.4
00 20.10 С 4 н/о н/о +14.9 +9.2 69 +14 +14 по сезону 1020.8 1018.4
01 20.10 С 5 30 км 8/8 600 м
[Cu Sc]
+17.8 +8.4 54 +17 +19 прохладно 1020.7 1018.3 +8.2
03 20.10 СЗ 6 н/о н/о +17.9 +8.8 55 +17 +17 прохладно 1019.7 1017.3
04 20.10 СЗ 7 30 км 9/9 1000 м
[Cu Sc]
+17.9 +9.3 57 +17 +18 очень
холодно
1019.2 1016.8
05 20.10 СЗ 1 н/о н/о +18.2 1016.5
06 20.10 З 6 н/о н/о +18.1 +10.6 62 +18 +18 холодно 1018.2 1015.8
07 20.10 З 7 30 км 9/9 600 м
[Cu Sc]
+18.6 +9.9 57 +18 +19 по сезону 1017.6 1015.2
09 20.10 З 6 н/о н/о +18.0 +9.9 59 +18 +18 по сезону 1017.8 1015.4
10 20.10 З 7 25 км осадки на расстоянии 9/9 600 м
[Cu Sc]
+16.7 +11.9 73 +16 +16 по сезону 1017.9 1015.5
11 20.10 СЗ 1 н/о н/о +18.0 1016.0
12 20.10 СЗ 4 н/о н/о +15.3 +12.0 81 +14 +14 по сезону 1018.5 1016.1
13 20.10 З 4 25 км в посл. час ливневой дождь {морось} 9/9 600 м
[Cu Sc]
+15.9 +11.6 76 +15 +15 тепло 1018.7 1016.3 +19.2 0.0
15 20.10 З 4 н/о н/о +15.5 +11.0 75 +15 +15 по сезону 1017.3 1014.9
16 20.10 СЗ 4 30 км 9/9 1500 м
[Sc]
+15.6 +9.8 68 +15 +15 тепло 1016.8 1014.4
17 20.10 СЗ 1 н/о н/о +15.8 1013.7
18 20.10 СЗ 5 н/о н/о +16.1 +10.2 68 +15 +15 тепло 1015.5 1013.1
19 20.10 З 4 25 км 8/8 600 м
[Cu Sc]
+15.9 +9.3 65 +15 +15 тепло 1015.4 1013.0
21 20.10 СЗ 5 н/о н/о +15.6 +10.7 73 +15 +15 по сезону 1015.2 1012.8
23 20.10 СЗ 1 н/о н/о +16.1 1014.2
22 20.10 З 5 20 км осадки на расстоянии 8/8 600 м
[Cu Sc]
+16.1 +10.2 68 +15 +15 по сезону 1016.1 1013.7
00 21.10 З 8 н/о н/о +18.3 +10.5 60 +18 +18 тепло 1016.5 1014.1
01 21.10 З 7 20 км слабый ливневой дождь 9/9 600 м
[Cu Sc]
+18.6 +11.9 65 +18 +19 по сезону 1016.7 1014.3 +14.3 0.0
03 21.10 З 6 н/о н/о +19.0 +14.5 75 +20 +20 тепло 1016.9 1014.5
04 21.10 З 8 30 км в посл. час ливневой дождь 6/6 600 м
[Cu Sc]
+19.9 +12.6 63 +21 +22 комфорт 1016.7 1014.3
05 21.10 СЗ 2 н/о н/о +19.5 1014.0
06 21.10 ЮЗ 8 н/о н/о +16.9 +15.5 91 +15 +15 очень
холодно
1016.3 1013.9
07 21.10 З 8 20 км в посл. час ливневой дождь 6/6 300 м
[Cu Sc]
+18.2 +14.7 80 +18 +19 по сезону 1016.1 1013.7 3
09 21.10 ЮЗ 8 н/о н/о +18.7 +12.0 65 +19 +19 по сезону 1016.5 1014.1
10 21.10 З 8 20 км осадки на расстоянии {ливн. осадки} 1/1 600 м
[Cu Sc]
+17.0 +10.6 66 +16 +16 по сезону 1017.1 1014.7
11 21.10 ЮЗ 2 н/о н/о +18.3 1015.6
12 21.10 ЮЗ 6 н/о н/о +15.6 +8.5 63 +14 +14 прохладно 1018.5 1016.1
13 21.10 ЮЗ 4 20 км мгла 9/9 1000 м
[Sc]
+15.0 +7.3 60 +14 +14 по сезону 1018.8 1016.4 +21.1
15 21.10 ЮЗ 4 н/о н/о +15.7 +6.4 54 +15 +15 по сезону 1018.4 1016.0
16 21.10 ЮЗ 4 25 км 9/9 1500 м
[Sc]
+15.8 +6.3 53 +15 +15 тепло 1018.4 1016.0
17 21.10 З 1 н/о н/о +15.8 1015.8
18 21.10 ЮЗ 5 н/о н/о +15.1 +7.4 60 +14 +14 тепло 1017.9 1015.5
19 21.10 ЮЗ 5 25 км 9/9 1500 м
[Sc]
+15.2 +5.5 52 +14 +14 тепло 1018.1 1015.7
21 21.10 ЮЗ 4 н/о н/о +14.9 +6.7 58 +14 +14 по сезону 1018.9 1016.5
23 21.10 ЮЗ 2 н/о н/о +14.9 1017.8
22 21.10 З 5 25 км 9/9 1500 м
[Sc]
+15.4 +4.1 47 +14 +14 по сезону 1019.2 1016.8
00 22.10 ЮЗ 6 н/о н/о +16.5 +7.7 56 +16 +16 по сезону 1020.3 1017.9
01 22.10 З 6 20 км осадки на расстоянии 9/9 1000 м
[Cu Sc]
+17.6 +5.6 45 +17 +17 прохладно 1020.7 1018.3 +14.6 3
03 22.10 ЮЗ 5 н/о н/о +18.0 +7.0 49 +18 +18 по сезону 1020.8 1018.4
04 22.10 ЮЗ 5 25 км осадки на расстоянии 9/9 1000 м
[Cu Sc]
+17.9 +7.6 51 +17 +18 холодно 1020.4 1018.0
05 22.10 З 2 н/о н/о +17.9 1018.1
06 22.10 З 7 н/о н/о +19.3 +7.2 45 +19 +19 прохладно 1020.0 1017.6
07 22.10 ЮЗ 5 30 км 8/8 1000 м
[Cu Sc]
+18.6 +6.8 46 +19 +20 по сезону 1019.6 1017.2
09 22.10 ЮЗ 6 н/о н/о +17.9 +6.6 48 +17 +17 прохладно 1019.8 1017.4
10 22.10 ЮЗ 6 30 км 1/1 1000 м
[Cu Sc Ci fib]
+16.7 +8.0 56 +16 +16 по сезону 1020.2 1017.8
11 22.10 ЮЗ 2 н/о н/о +17.9 1018.6
12 22.10 ЮЗ 5 н/о н/о +14.4 +6.8 60 +13 +13 прохладно 1021.1 1018.7
13 22.10 Ю 5 30 км ясно +13.4 +7.7 68 +12 +12 по сезону 1021.2 1018.8 +20.0
15 22.10 Ю 3 н/о н/о +9.8 +7.7 87 +8 +8 холодно 1020.9 1018.5
16 22.10 Ю 3 30 км ясно +8.3 +7.2 93 +5 +5 прохладно 1020.5 1018.1
17 22.10 В 1 н/о н/о +9.9 1017.8
18 22.10 СВ 2 н/о н/о +7.1 +6.4 95 +5 +5 холодно 1019.5 1017.1
19 22.10 С 2 30 км 8/8 1500 м
[Sc]
+7.5 +6.8 95 +5 +5 холодно 1019.5 1017.1
21 22.10 СВ 2 н/о н/о +8.4 +7.6 95 +7 +7 холодно 1019.4 1017.0
23 22.10 В 2 н/о н/о +9.0 1017.7
22 22.10 В 2 25 км 8/8 1500 м
[Sc]
+11.2 +7.4 77 +10 +10 холодно 1019.6 1017.2
00 23.10 В 6 н/о н/о +13.9 +7.3 64 +12 +12 прохладно 1019.9 1017.5
01 23.10 В 4 25 км 8/8 1500 м
[Sc Ci sp]
+17.1 +8.3 56 +17 +18 прохладно 1019.4 1017.0 +7.0
03 23.10 СЗ 3 н/о н/о +19.9 +6.3 41 +21 +21 комфорт 1018.6 1016.2
04 23.10 З 6 25 км 6/6 1500 м
[Sc Ci sp]
+19.4 +6.9 44 +20 +23 прохладно 1017.9 1015.5
05 23.10 З 1 н/о н/о +19.6 1015.2
06 23.10 З 5 н/о н/о +20.8 +5.7 37 +22 +22 комфорт 1016.8 1014.4
07 23.10 З 6 25 км 1/1 1500 м
[Cu hum Ci fib]
+20.5 +5.5 37 +21 +26 комфорт 1016.3 1013.9
09 23.10 З 6 н/о н/о +19.1 +6.5 44 +19 +19 по сезону 1016.1 1013.7
10 23.10 З 6 30 км 1/1 1000 м
[Cu hum Ci sp]
+17.2 +7.9 54 +16 +17 по сезону 1016.4 1014.0
11 23.10 ЮЗ 2 н/о н/о +18.7 1014.5
12 23.10 ЮЗ 5 н/о н/о +15.5 +9.9 69 +14 +14 прохладно 1016.9 1014.5
13 23.10 Ю 4 25 км 8/1 600 м
[Sc diur, vesp Ci fib]
+14.6 +10.2 75 +14 +14 по сезону 1016.9 1014.5 +21.1
15 23.10 Ю 4 н/о н/о +14.0 +9.9 76 +13 +13 по сезону 1016.2 1013.8
16 23.10 Ю 3 25 км 8/6 1000 м
[Sc Ci fib]
+12.1 +9.7 85 +10 +10 по сезону 1015.5 1013.1
18 23.10 Ю 4 н/о н/о +13.7 +9.0 73 +12 +12 по сезону 1014.5 1012.1
19 23.10 Ю 3 25 км 9/9 1000 м
[Sc]
+12.3 +9.5 83 +11 +11 по сезону 1014.2 1011.8
21 23.10 СВ 2 н/о н/о +11.9 +9.5 85 +11 +11 прохладно 1014.0 1011.6
22 23.10 С 3 25 км 9/9 1000 м
[Sc]
+12.5 +9.5 82 +11 +11 тепло 1014.6 1012.2

 

Местоположение метеостанции Perth (Западная Австралия, Австралия): широта -31.93 долгота 115.96 высота над уровнем моря 20 м.

В архиве по умолчанию представлена погода в Perth за последнюю неделю. Архивные данные за месяц целиком и за предыдущие месяцы, начиная с января 2011 года, Вы можете получить, выбрав интересующий диапазон дат из раскрывающегося списка и нажав кнопку "Ввод!".


*Определитесь, кто Вы:
робот инопланетянин человек

Внимание! Время в таблицах - всемирное. Для получения местного времени необходимо прибавить поправку, которая в Perth равна 8 ч.

Смотрите также архив погоды в соседних городах и на ближайших метеорологических станциях:

Погода в Mount Lawley Perth Metro (Западная Австралия, Австралия) (9 км)
Погода в Goosebery Hill (Западная Австралия, Австралия) (9 км)
Погода в Swanbourne (Западная Австралия, Австралия) (18 км)
Погода в Kalamunda Bickley (Западная Австралия, Австралия) (19 км)
Погода в Perth Jandakot Airport (Западная Австралия, Австралия) (20 км)
Погода в Wanneroo (Западная Австралия, Австралия) (29 км)
Погода в Bullsbrook Pearce Amo (Западная Австралия, Австралия) (29 км)
Погода в Garden Island Airpoet (Западная Австралия, Австралия) (43 км)
Погода в Rottnest Island (Западная Австралия, Австралия) (45 км)
Погода в Gingin Aero (Западная Австралия, Австралия) (52 км)

Пояснения к столбцам:

Ветер - указаны скорость ветра в м/с - средняя за 10 мин, порывы в срок и между сроками (в фигурных скобках) и направление, откуда дует ветер: С - северный, СВ - северо-восточный, В - восточный, ЮВ - юго-восточный, Ю - южный, ЮЗ - юго-западный, З - западный, СЗ - северо-западный.
Видимость - горизонтальная дальность видимости в метрах или километрах. При видимости от 1 до 10 км при отсутствии осадков обычно наблюдается дымка, при ухудшении видимости до 1 км и менее - туман. В сухую погоду видимость может ухудшаться дымом, пылью или мглою.
Явления - указаны атмосферные явления, наблюдавшиеся в срок или в последний час перед сроком; фигурными скобками обозначены явления, наблюдавшиеся между сроками (за 1-3 часа до срока); квадратными скобками обозначены град или гололедные отложения с указанием их диаметра в мм.
Облачность - указаны через наклонную черту общая и нижняя облачность в баллах и высота нижней границы облаков в метрах; квадратными скобками обозначены формы облаков: Ci - перистые, Cs - перисто-слоистые, Cc - перисто-кучевые, Ac - высококучевые, As - высокослоистые, Sc - слоисто-кучевые, Ns - слоисто-дождевые, Cu - кучевые, Cb - кучево-дождевые. Подробнее классификацию облаков см. в Атласе облаков (PDF).
T - Температура воздуха - температура, измеренная на высоте 2 м над землей.
Td - Температура точки росы - температура, при понижении до которой содержащийся в воздухе водяной пар достигнет насыщения.
f - Относительная влажность воздуха - влажноcть воздуха, измеренная на высоте 2 м над землей.
Te - Эффективная температура - температура, которую ощущает одетый по сезону человек в тени. Характеристика душности погоды. При расчете учитывается влияние влажности воздуха и скорости ветра на теплоощущения человека.
Tes - Эффективная температура на солнце - температура, которую ощущает человек, с поправкой на солнечный нагрев. Характеристика знойности погоды. Зависит от высоты солнца над горизонтом, облачности и скорости ветра. Ночью, в пасмурную погоду, а также при ветре 12 м/с и более поправка равна нулю.
P - Атмосферное давление - приведенное к уровню моря атмосферное давление.
Po - Атмосферное давление - измеренное на уровне метеостанции атмосферное давление.
Tmin - Минимальная температура - минимум температуры воздуха на высоте 2 м над землей.
Tmax - Максимальная температура - максимум температуры воздуха на высоте 2 м над землей.
R - Количество осадков - Количество выпавших осадков за период времени, мм. При наведении курсора мыши на число - период времени, за который выпало указанное количество осадков.
R24 - Количество осадков - Количество выпавших осадков за 24 часа, мм.
S - Снежный покров - Высота снежного покрова, см. При наведении курсора мыши на число - состояние снежного покрова и степень покрытия местности в баллах.